Orbital Elements at Epoch 2459000.5 (2020-May-31.0) TDB
Reference: JPL 17 (heliocentric ecliptic J2000)
Element | Value | Uncertainty (1-sigma) | Units |
e | .08903754579373285 | 6.17e-08 | |
a | 2.844094204380524 | 1.6835e-08 | au |
q | 2.590863036416303 | 1.7656e-07 | au |
i | 2.747068309705466 | 5.0374e-06 | deg |
node | 137.3485154349805 | 0.00011373 | deg |
peri | 228.3250124912883 | 0.00011587 | deg |
M | 205.8894986854626 | 2.3983e-05 | deg |
tp | 2459750.470404167275 (2022-Jun-19.97040417) | 0.00011857 | TDB |
period | 1751.920493394375 4.80 | 1.5555e-05 4.259e-08 | d yr |
n | .2054887772346872 | 1.8245e-09 | deg/d |
Q | 3.097325372344745 | 1.8334e-08 | au |
|
| | Orbit Determination Parameters
Additional Information
|